Location: Peterborough
(44.3091°N, 78.3197°W)
Time: 03:15:12
(UTC-04:00)

Tiros 1 - Pass Details

Date: 11 April 2023
Orbit: 627 x 661 km, 48.4° (Epoch: 09 June)

Event Time Altitude Azimuth Distance (km) Brightness Sun altitude
Rises 06:25:40 0° 290° (WNW) 2,985 10.1 -2.8°
Reaches altitude 10° 06:28:13 10° 280° (W) 2,074 9.2 -2.3°
Maximum altitude 06:32:24 30° 219° (SW) 1,167 8.1 -1.6°
Drops below altitude 10° 06:36:34 10° 158° (SSE) 2,067 9.9 -0.9°
Sets 06:39:07 0° 148° (SSE) 2,974 10.8 -0.4°
